TimeEDT,TemperatureF,Dew PointF,Humidity,Sea Level PressureIn,VisibilityMPH,Wind Direction,Wind SpeedMPH,Gust SpeedMPH,PrecipitationIn,Events,Conditions,WindDirDegrees,DateUTC
12:53 AM,55.9,28.0,34,29.85,10.0,Variable,3.5,-,N/A,,Overcast,0,2011-10-18 04:53:00
1:53 AM,55.0,28.0,35,29.84,10.0,NNW,4.6,-,0.00,,Overcast,330,2011-10-18 05:53:00
2:53 AM,54.0,28.9,38,29.84,10.0,West,4.6,-,N/A,,Overcast,270,2011-10-18 06:53:00
3:53 AM,53.1,30.0,41,29.83,10.0,Calm,Calm,-,N/A,,Overcast,0,2011-10-18 07:53:00
4:53 AM,52.0,30.9,45,29.84,10.0,Calm,Calm,-,N/A,,Overcast,0,2011-10-18 08:53:00
5:53 AM,52.0,33.1,49,29.84,10.0,Calm,Calm,-,N/A,,Overcast,0,2011-10-18 09:53:00
6:53 AM,51.1,34.0,52,29.85,10.0,Calm,Calm,-,N/A,,Overcast,0,2011-10-18 10:53:00
8:53 AM,51.1,35.1,54,29.86,10.0,Calm,Calm,-,N/A,,Mostly Cloudy,0,2011-10-18 12:53:00
9:53 AM,53.1,35.1,50,29.85,10.0,Calm,Calm,-,N/A,,Scattered Clouds,0,2011-10-18 13:53:00
10:53 AM,55.0,36.0,49,29.86,10.0,Calm,Calm,-,N/A,,Overcast,0,2011-10-18 14:53:00
11:53 AM,57.0,37.0,47,29.84,10.0,Variable,3.5,-,N/A,,Overcast,0,2011-10-18 15:53:00
12:53 PM,59.0,33.1,38,29.83,10.0,Calm,Calm,-,N/A,,Overcast,0,2011-10-18 16:53:00
1:53 PM,62.1,34.0,35,29.79,10.0,Calm,Calm,-,N/A,,Mostly Cloudy,0,2011-10-18 17:53:00
2:53 PM,63.0,35.1,35,29.77,4.0,North,6.9,-,N/A,,Haze,350,2011-10-18 18:53:00
3:53 PM,62.1,35.1,37,29.75,10.0,NE,4.6,-,N/A,,Mostly Cloudy,50,2011-10-18 19:53:00
4:53 PM,57.0,37.0,47,29.79,8.0,NE,9.2,17.3,0.01,Rain,Light Rain,40,2011-10-18 20:53:00
5:53 PM,55.9,37.0,49,29.77,10.0,ENE,5.8,-,0.00,,Clear,70,2011-10-18 21:53:00
6:53 PM,54.0,36.0,51,29.74,10.0,East,4.6,-,N/A,,Clear,100,2011-10-18 22:53:00
7:53 PM,53.1,37.0,55,29.74,10.0,Calm,Calm,-,N/A,,Clear,0,2011-10-18 23:53:00
9:53 PM,51.1,36.0,56,29.71,10.0,North,4.6,-,N/A,,Clear,10,2011-10-19 01:53:00
10:53 PM,50.0,37.0,61,29.70,10.0,North,4.6,-,N/A,,Clear,360,2011-10-19 02:53:00
11:53 PM,50.0,37.9,63,29.75,10.0,WNW,10.4,-,N/A,,Mostly Cloudy,300,2011-10-19 03:53:00